Simultaneous Nadir Overpasses (SNOs) Predictions

Prediction of SNOs between GOES-16 and AQUA Satellite Orbit:

Table of predicted SNOs for the next 14.0 days since TLE Epoch: 1/29/2021
Index Date Time (GOES-16) GOES-16 Lat,Lon AQUA Lat,Lon Distance(km) Time Diff (sec)
1 01/31/2021 06:38:14 -0.02, -75.21 0.03, -75.35 16.39 80
2 02/02/2021 06:23:24 -0.02, -75.22 -0.63, -72.40 320.81 80
3 02/02/2021 18:44:48 0.02, -75.22 -0.49, -77.59 269.31 80
4 02/04/2021 18:35:17 0.02, -75.24 0.12, -74.63 68.43 80
5 02/06/2021 18:23:07 0.03, -75.26 0.80, -71.69 406.17 80
6 02/07/2021 06:44:23 -0.03, -75.27 0.29, -76.85 179.40 80
7 02/09/2021 06:29:32 -0.04, -75.29 -0.32, -73.89 158.83 80
8 02/09/2021 18:50:56 0.04, -75.29 -0.78, -79.08 431.46 80
9 02/11/2021 06:17:22 -0.04, -75.31 -1.00, -70.94 497.94 80
10 02/11/2021 18:38:45 0.05, -75.32 -0.15, -76.12 92.01 80
